Munising, MI

7:07 AM EST on February 25, 2017 (GMT -0500)
Munising

Weather History for KP53 - June, 2013

Change the Weather History Date:

Thursday, June 13, 2013

  Actual Average (KISQ) Record (KISQ)
Temperature  
Mean Temperature 50 °F -  
Max Temperature 55 °F 68 °F 84 °F (1988)
Min Temperature 46 °F 47 °F 35 °F (2012)
Degree Days  
Heating Degree Days 15    
Moisture  
Dew Point 44 °F    
Average Humidity 78    
Maximum Humidity 83    
Minimum Humidity 69    
Precipitation  
Precipitation 0.00 in - - ()
Sea Level Pressure  
Sea Level Pressure 30.00 in    
Wind  
Wind Speed 11 mph (NNW)    
Max Wind Speed 22 mph    
Max Gust Speed 26 mph    
Averages and records for this station are not official NWS values.
T = Trace of Precipitation, MM = Missing Value Source: NWS Daily Summary

Daily Weather History Graph

Daily Weather History Graph

Search for Another Location

Airport or City:

Trip Planner

Search our weather history database for the weather conditions in past years. The results will help you decide how hot, cold, wet, or windy it might be!

Date:

Astronomy

Jun. 13, 2013 Rise Set
Actual Time 5:53 AM EDT 9:40 PM EDT
Civil Twilight 5:14 AM EDT 10:19 PM EDT
Nautical Twilight 4:22 AM EDT 11:11 PM EDT
Astronomical Twilight 3:07 AM EDT 12:26 AM EDT
Moon 10:43 AM EDT (6/13) 12:02 AM EDT (6/13)
Length of Visible Light 17h 04m
Length of Day
15h 46m
Waxing Crescent, 21% of the Moon is Illuminated
Jun 13
Waxing Crescent
Jun 16
First Quarter
Jun 23
Full
Jun 30
Last Quarter
Jul 8
New

Hourly Weather History & Observations

Time (EDT) Temp. Dew Point Humidity Pressure Visibility Wind Dir Wind Speed Gust Speed Precip Events Conditions
12:56 AM 54.0 °F 46.9 °F 77% 29.81 in - North 5.8 mph - N/A   Unknown
1:56 AM 53.1 °F 46.9 °F 80% 29.84 in - North 4.6 mph - N/A   Unknown
2:56 AM 53.1 °F 46.0 °F 77% 29.85 in - NW 9.2 mph - N/A   Unknown
3:56 AM 51.1 °F 45.0 °F 80% 29.86 in - NW 13.8 mph - N/A   Unknown
4:56 AM 51.1 °F 45.0 °F 80% 29.87 in - NW 11.5 mph - N/A   Unknown
5:56 AM 51.1 °F 46.0 °F 83% 29.89 in - NW 11.5 mph - N/A   Unknown
6:56 AM 51.1 °F 46.0 °F 83% 29.90 in - NNW 15.0 mph 19.6 mph N/A   Unknown
7:56 AM 50.0 °F 45.0 °F 83% 29.92 in - NW 18.4 mph - N/A   Unknown
8:56 AM 48.9 °F 44.1 °F 83% 29.94 in - NW 17.3 mph - N/A   Unknown
9:56 AM 48.9 °F 43.0 °F 80% 29.97 in - NW 17.3 mph - N/A   Unknown
10:56 AM 48.0 °F 43.0 °F 83% 29.99 in - NNW 15.0 mph - N/A   Unknown
11:56 AM 46.9 °F 42.1 °F 83% 30.03 in - NNW 12.7 mph - N/A   Unknown
12:56 PM 48.0 °F 42.1 °F 80% 30.04 in - NNW 11.5 mph - N/A   Unknown
1:56 PM 48.0 °F 42.1 °F 80% 30.05 in - NW 15.0 mph - N/A   Unknown
2:56 PM 48.9 °F 42.1 °F 77% 30.07 in - NW 18.4 mph 24.2 mph N/A   Unknown
3:56 PM 50.0 °F 42.1 °F 74% 30.08 in - NW 17.3 mph - N/A   Unknown
4:56 PM 51.1 °F 43.0 °F 74% 30.08 in - NW 21.9 mph 26.5 mph N/A   Unknown
5:56 PM 54.0 °F 44.1 °F 69% 30.09 in - NNW 20.7 mph 26.5 mph N/A   Unknown
6:56 PM 54.0 °F 45.0 °F 72% 30.09 in - NNW 18.4 mph - N/A   Unknown
7:56 PM 54.0 °F 45.0 °F 72% 30.10 in - NNW 12.7 mph - N/A   Unknown
8:56 PM 54.0 °F 45.0 °F 72% 30.10 in - North 10.4 mph - N/A   Unknown
9:56 PM 53.1 °F 45.0 °F 74% 30.10 in - NNW 5.8 mph - N/A   Unknown
10:56 PM 51.1 °F 44.1 °F 77% 30.12 in - NE 5.8 mph - N/A   Unknown
11:56 PM 51.1 °F 43.0 °F 74% 30.12 in - NNE 4.6 mph - N/A   Unknown